Hourly Data Report for July 05, 2021

PRINCE RUPERT
BRITISH COLUMBIA
Current Station Operator: NAVCAN

54°17'10.000" N
130°26'41.000" W
35.40 m
1066482
71022
YPR

Download Data

Hourly Data (July 2021)
Hourly Data Report for July 5, 2021
TIME
LST
Temp Definition
°C
Dew Point Definition
°C
Rel Hum Definition
%
Precip. Amount Definition
mm

Wind Dir Definition
10's deg

Wind Spd Definition
km/h
Visibility Definition
km
Stn Press Definition
kPa
Hmdx Definition


Wind Chill Definition


Weather Definition


00:00 12.0 10.3 89 0.0 22 9 12.9 101.46     LegendNANA
01:00 12.0 10.4 90 0.0 21 9 11.3 101.47     LegendNANA
02:00 11.9 10.3 90 0.0 20 8 11.3 101.46     LegendNANA
03:00 11.7 10.3 91 0.0 22 9 11.3 101.48     LegendNANA
04:00 11.8 10.4 91 0.0 21 8 11.3 101.49     LegendNANA
05:00 11.9 10.5 91 0.0 18 8 12.9 101.51     LegendNANA
06:00 12.1 10.5 90 0.0 19 8 14.5 101.53     LegendNANA
07:00 12.5 10.8 89 0.0 19 8 14.5 101.55     LegendNANA
08:00 12.9 11.0 88 0.0 24 9 16.1 101.56     LegendNANA
09:00 13.3 11.2 87 0.0 23 5 16.1 101.56     LegendNANA
10:00 13.2 11.3 88 0.0 22 9 8.1 101.57     Fog
11:00 13.7 11.6 87 0.0 26 8 12.9 101.59     LegendNANA
12:00 13.5 11.2 86 0.0 26 17 16.1 101.63     LegendNANA
13:00 13.7 11.4 86 0.0 25 13 16.1 101.65     LegendNANA
14:00 13.9 11.5 85 0.0 25 13 16.1 101.67     LegendNANA
15:00 14.2 11.4 83 0.0 25 15 16.1 101.68     LegendNANA
16:00 14.7 11.5 81 0.0 26 17 16.1 101.68     LegendNANA
17:00 14.4 11.2 81 0.0 26 11 16.1 101.67     LegendNANA
18:00 13.9 10.9 82 0.0 26 9 16.1 101.67     LegendNANA
19:00 13.4 10.8 84 0.0 24 11 16.1 101.68     LegendNANA
20:00 12.7 10.4 86 0.0 26 11 16.1 101.68     LegendNANA
21:00 12.0 10.1 88 0.0 25 13 16.1 101.69     LegendNANA
22:00 11.8 10.1 90 0.0 25 8 16.1 101.70     LegendNANA
23:00 11.8 10.2 90 0.0 24 9 16.1 101.70     LegendNANA

Notes on Data Quality.

Legend

  • E = Estimated
  • M = Missing
  • NA = Not Available*
  • [empty] = Indicates an unobserved value
Date modified: